Showing default

GGSE 4, 2828

Orbit data source: Space-Track

GGSE 4, 2828 is an American payload satellite in LEO that was launched on Wed, 31 May 1967 UTC via a THOR SLV-2 AGENA D launch vehicle from the Air Force Western Test Range (AFWTR). Payload-class satellites include a variety of spacecraft equipped with specific instruments for various scientific and technological missions. These include communications satellites like Starlink; space stations such as the ISS; scientific satellites like the Hubble; Earth observation satellites from companies like Planet Labs, Umbra, and HawkEye 360; GPS; miniature CubeSats for education and research; and military/defense satellites.

Loading next visibility...
Identifier
2828, 1967-053C
Orbit
LEO
Country
Flag of USUS
Related business
Manufacturer
NRL
Mission
Spacecraft
Bus & Motor
NRL MULTI, Unknown motor
Mass
85 kg wet, 85 kg dry
Launch date (UTC)
1967-05-31 (58 years ago)
Launch vehicle
THOR SLV-2 AGENA D
Launch site
Air Force Western Test Range (AFWTR)
Object type
Payload
Rocket body
Debris
Shape & HBR
Unknown
Radar Cross Section
Medium (>0.1 m² and <1 m²)

Expand to show TLE details & history
Last TLE update: 20 hours ago

TLE from 20 hours ago
0 GGSE 4
1 02828U 67053C   25300.98988832  .00000114  00000-0  11810-3 0  9996
2 02828  69.9715 201.7183 0005050 123.0671 237.0921 13.98021371975719
Epoch: 2025-10-27T23:45Z
TLE epoch observation values (Epoch: 2025-10-27T23:45:26.350Z)
Latitude
-0.00005°
Longitude
168.77468°
Altitude
904.966 km
Speed
7.399 km/s
True Right ascension
13h 26m 52s
True Declination
0° 00' 00"
Sunlit
Object was in daylight at epoch
Visualization orbit readout
Latitude
Unknown
Longitude
Unknown
Altitude
Unknown
Speed
Unknown
Apparent Right ascension
Unknown
Apparent Declination
Unknown
Sunlit
N/A
Visualization observer readout
Local Sidereal Time
15:19:25
Azimuth
Unknown
Elevation
Unknown
Doppler factor
Unknown
Orbital elements
Apogee altitude
902.374 km
Perigee altitude
895.024 km
Semi-major axis
7,276.836 km
Eccentricity
0.00051
Inclination
69.9715°
RAAN
201.7183°
Arg. of periapsis
123.0671°
True anomaly
237.04353°
Mean anomaly
237.0921°
Eccentric anomaly
237.06781°
Mean motion
3.49647 °/min
Orbital period
102.96 mins
BSTAR
0.0001181
Loading maneuver chart data...
Computing Atmospheric mass density...
Loading historical data...
Loading historical data...
Loading historical data...
Loading historical data...
Loading historical data...
Loading historical data...
Loading historical data...

Documentation

Showing up to 5 results
|